Terug naar catalogus

STARLINK-34135

ActiefCommunicatieVLEO
NORAD 63964·PAYLOAD·🇺🇸 United States

Gelanceerd May 13, 2025 vanaf Cape Canaveral Space Force Station

Loading…

Volgende Passages (komende 24 uur)

TLE

VersSource: CelesTrak SupGP

Epoch: Sep 14, 2026, 21:43 UTC

1 63964C 25099N   26257.90534722 -.00013567  00000+0 -49129-3 0  2575
2 63964  42.9997 187.5437 0001429 261.8865 159.5679 15.27591622    10

Volg STARLINK-34135 in realtime met AllMySat

Download on the App Store